TimeAKDT,TemperatureF,Dew PointF,Humidity,Sea Level PressureIn,VisibilityMPH,Wind Direction,Wind SpeedMPH,Gust SpeedMPH,PrecipitationIn,Events,Conditions,WindDirDegrees,DateUTC
12:53 AM,43.0,41.0,93,30.31,10.0,Calm,Calm,-,N/A,,Overcast,0,2012-10-07 08:53:00
1:53 AM,43.0,42.1,97,30.30,10.0,ENE,4.6,-,0.01,,Overcast,70,2012-10-07 09:53:00
2:53 AM,43.0,42.1,97,30.30,10.0,NE,3.5,-,0.01,Rain,Light Rain,50,2012-10-07 10:53:00
3:53 AM,43.0,42.1,97,30.30,5.0,North,3.5,-,0.03,Rain,Light Rain,10,2012-10-07 11:53:00
4:53 AM,44.1,43.0,96,30.30,4.0,North,5.8,-,0.04,Rain,Light Rain,360,2012-10-07 12:53:00
5:23 AM,44.6,44.6,100,30.28,4.0,North,5.8,-,0.03,Rain,Light Rain,10,2012-10-07 13:23:00
5:53 AM,44.1,44.1,100,30.28,6.0,NNE,6.9,-,0.06,Rain,Light Rain,20,2012-10-07 13:53:00
6:35 AM,44.6,44.6,100,30.27,3.0,North,3.5,-,0.03,Rain,Light Rain,360,2012-10-07 14:35:00
6:45 AM,44.6,44.6,100,30.26,3.0,North,5.8,-,0.04,Rain,Light Rain,10,2012-10-07 14:45:00
6:53 AM,44.1,44.1,100,30.27,3.0,North,5.8,-,0.04,Rain,Light Rain,360,2012-10-07 14:53:00
7:53 AM,44.1,44.1,100,30.27,4.0,North,5.8,-,0.02,Rain,Light Rain,360,2012-10-07 15:53:00
8:53 AM,45.0,45.0,100,30.27,5.0,North,3.5,-,0.02,Rain,Light Rain,350,2012-10-07 16:53:00
9:53 AM,46.0,46.0,100,30.27,2.5,North,5.8,-,0.02,Rain,Light Rain,360,2012-10-07 17:53:00
10:23 AM,44.6,44.6,100,30.28,2.5,North,6.9,-,0.01,Rain,Light Rain,350,2012-10-07 18:23:00
10:46 AM,44.6,44.6,100,30.28,2.5,North,6.9,-,0.02,Rain,Light Rain,350,2012-10-07 18:46:00
10:53 AM,45.0,45.0,100,30.29,2.5,North,5.8,-,0.02,Rain,Light Rain,360,2012-10-07 18:53:00
10:56 AM,44.6,44.6,100,30.28,4.0,North,5.8,-,0.00,Rain,Light Rain,350,2012-10-07 18:56:00
11:03 AM,44.6,44.6,100,30.28,4.0,North,5.8,-,0.01,Rain,Light Rain,360,2012-10-07 19:03:00
11:53 AM,46.0,46.0,100,30.30,7.0,North,4.6,-,0.04,Rain,Light Rain,350,2012-10-07 19:53:00
12:04 PM,46.4,46.4,100,30.29,6.0,North,3.5,-,0.00,Rain,Light Rain,350,2012-10-07 20:04:00
12:31 PM,46.4,46.4,100,30.28,2.5,North,3.5,-,0.01,Rain,Light Rain,360,2012-10-07 20:31:00
12:41 PM,46.4,46.4,100,30.29,3.0,North,3.5,-,0.01,Rain,Light Rain,10,2012-10-07 20:41:00
12:53 PM,46.0,46.0,100,30.30,2.5,Calm,Calm,-,0.01,Rain,Light Rain,0,2012-10-07 20:53:00
1:21 PM,46.4,46.4,100,30.29,3.0,Calm,Calm,-,0.02,Rain,Light Rain,0,2012-10-07 21:21:00
1:36 PM,46.4,46.4,100,30.29,2.5,Calm,Calm,-,0.02,Rain,Light Rain,0,2012-10-07 21:36:00
1:47 PM,46.4,46.4,100,30.28,3.0,NW,3.5,-,0.02,Rain,Light Rain,320,2012-10-07 21:47:00
1:53 PM,46.9,46.9,100,30.29,2.5,NNW,3.5,-,0.02,Rain,Light Rain,330,2012-10-07 21:53:00
2:53 PM,46.9,46.9,100,30.30,2.5,Calm,Calm,-,0.02,Rain,Light Rain,0,2012-10-07 22:53:00
3:53 PM,48.0,46.9,96,30.29,3.0,Calm,Calm,-,0.01,,Overcast,0,2012-10-07 23:53:00
4:00 PM,48.2,48.2,100,30.28,2.5,Calm,Calm,-,N/A,,Overcast,0,2012-10-08 00:00:00
4:53 PM,48.0,46.9,96,30.28,2.5,Calm,Calm,-,0.01,,Overcast,0,2012-10-08 00:53:00
5:00 PM,48.2,46.4,93,30.27,2.5,Calm,Calm,-,N/A,,Overcast,0,2012-10-08 01:00:00
5:50 PM,46.4,46.4,100,30.26,10.0,Calm,Calm,-,N/A,,Overcast,0,2012-10-08 01:50:00
5:53 PM,46.9,46.9,100,30.27,10.0,Calm,Calm,-,N/A,,Overcast,0,2012-10-08 01:53:00
6:44 PM,46.4,46.4,100,30.26,1.8,Calm,Calm,-,N/A,,Overcast,0,2012-10-08 02:44:00
6:53 PM,46.9,46.9,100,30.27,1.0,Calm,Calm,-,N/A,,Overcast,0,2012-10-08 02:53:00
7:23 PM,46.4,46.4,100,30.26,0.8,Calm,Calm,-,N/A,,Mist,0,2012-10-08 03:23:00
7:53 PM,46.9,46.9,100,30.27,0.5,Calm,Calm,-,N/A,Fog,Fog,0,2012-10-08 03:53:00
8:45 PM,46.4,46.4,100,30.26,1.0,Calm,Calm,-,N/A,,Overcast,0,2012-10-08 04:45:00
8:53 PM,46.9,46.9,100,30.27,1.0,Calm,Calm,-,N/A,,Overcast,0,2012-10-08 04:53:00
9:06 PM,46.4,46.4,100,30.26,3.0,Calm,Calm,-,N/A,,Overcast,0,2012-10-08 05:06:00
9:28 PM,46.4,46.4,100,30.26,5.0,Calm,Calm,-,N/A,,Overcast,0,2012-10-08 05:28:00
9:34 PM,46.4,46.4,100,30.26,1.8,Calm,Calm,-,N/A,,Overcast,0,2012-10-08 05:34:00
9:53 PM,46.0,46.0,100,30.27,3.0,Calm,Calm,-,N/A,,Overcast,0,2012-10-08 05:53:00
10:21 PM,46.4,46.4,100,30.27,5.0,Calm,Calm,-,N/A,,Overcast,0,2012-10-08 06:21:00
10:26 PM,46.4,46.4,100,30.27,1.8,Calm,Calm,-,N/A,,Overcast,0,2012-10-08 06:26:00
10:34 PM,46.4,46.4,100,30.26,0.8,Calm,Calm,-,N/A,,Mist,0,2012-10-08 06:34:00
10:53 PM,46.0,46.0,100,30.27,0.5,Calm,Calm,-,N/A,Fog,Fog,0,2012-10-08 06:53:00
11:12 PM,46.4,46.4,100,30.25,1.0,Calm,Calm,-,N/A,,Overcast,0,2012-10-08 07:12:00
11:17 PM,46.4,46.4,100,30.25,3.0,Calm,Calm,-,N/A,,Overcast,0,2012-10-08 07:17:00
11:53 PM,46.0,46.0,100,30.26,10.0,Calm,Calm,-,N/A,,Overcast,0,2012-10-08 07:53:00